Regional Weather Roundup
Issued by NWS

Home | Current Version | Previous Version | Text Only | Print | Product List | Glossary On
Versions: 1 2 3 4 5 6 7 8 9 10 11 12 13 14 15 16 17 18 19 20 21 22 23 24 25 26 27
000
ASPQ40 PGUM 191012
RWRPQ
WEATHER ROUNDUP FOR THE MARIANAS AND MICRONESIA
NATIONAL WEATHER SERVICE TIYAN GU
800 PM CHST SAT AUG 19 2017

GUZ001>004-191100-
MARIANA ISLANDS-

CITY           SKY/WX    TMP DP  RH WIND       PRES   REMARKS
GUAM AIRPORT   CLEAR     79  77  94 SE8       29.85R
ANDERSEN AFB   PTCLDY    79  73  83 S12       29.90R
ROTA AIRPORT   MOCLDY    79  73  83 SE9       29.85R
TINIAN AP      MOCLDY    79  73  83 SE3       29.84R
SAIPAN AP      CLOUDY    84  75  74 CALM      29.85R HX  92

$$

PMZ161-191100-
REPUBLIC OF PALAU-

CITY           SKY/WX    TMP DP  RH WIND       PRES   REMARKS
KOROR AP       MOCLDY    79  77  94 CALM      29.80R
KOROR WSO      MOCLDY    81  79  94 S3        29.81R

$$

PMZ171>174-191100-
FEDERATED STATES OF MICRONESIA-

CITY           SKY/WX    TMP DP  RH WIND       PRES   REMARKS
YAP AIRPORT    MOCLDY    81  75  83 VRB6      29.82R
CHUUK AP       CLOUDY    81  77  89 NE6       29.79S
POHNPEI AP     CLOUDY    81  77  89 S5        29.79S
POHNPEI WSO    CLOUDY    77  75  94 S5        29.84R
KOSRAE AP      NOT AVBL

$$

PMZ181-191100-
REPUBLIC OF THE MARSHALL ISLANDS-

CITY           SKY/WX    TMP DP  RH WIND       PRES   REMARKS
KWAJALEIN AP   CLEAR     82  75  78 E8        29.80S
MAJURO AP      NOT AVBL
MAJURO WSO     PTCLDY    82  77  83 E7        29.78R HX  91

$$





USA.gov is the U.S. government's official web portal to all federal, state and local government web resources and services.